When you browse on this site, cookies collect data to enhance your experience and personalize the content and advertising you see.
Visit our Privacy Policy to learn more. By continuing to use the site, you agree to this use of cookies and data.
  • In Latvia
  • List of Countries
  • For 7 days
  • Water Temperature
  • Satellite Maps
  • Weather Map
  • Weather Widgets
  • user-avatar
    Login

    Hourly Weather Novoe Malinovo

    Today, 17 January, Thursday

    Time Temperature Precipitation Wind Pressure Humidity
    00:00 -9°C° 0 mm 3 mps 730 mmHg 91%
    01:00 -10°C° 0 mm 3 mps 730 mmHg 91%
    02:00 -9°C° 0 mm 2 mps 730 mmHg 91%
    03:00 -12°C° 0 mm 3 mps 730 mmHg 93%
    04:00 -13°C° 0 mm 3 mps 730 mmHg 94%
    05:00 -14°C° 0 mm 3 mps 730 mmHg 95%
    06:00 -13°C° 0 mm 3 mps 729 mmHg 94%
    07:00 -12°C° 0 mm 4 mps 729 mmHg 93%
    08:00 -11°C° 0 mm 4 mps 728 mmHg 91%
    09:00 -11°C° 0.4 mm 5 mps 728 mmHg 91%
    10:00 -10°C° 0.4 mm 5 mps 727 mmHg 91%
    11:00 -9°C° 0.4 mm 6 mps 726 mmHg 90%
    12:00 -6°C° 0.4 mm 6 mps 726 mmHg 89%
    13:00 -4°C° 0.4 mm 6 mps 725 mmHg 87%
    14:00 -3°C° 0.4 mm 6 mps 724 mmHg 85%
    15:00 -2°C° 0.1 mm 6 mps 724 mmHg 85%
    16:00 -2°C° 0.1 mm 6 mps 723 mmHg 85%
    17:00 -2°C° 0.1 mm 6 mps 723 mmHg 85%
    18:00 -2°C° 0.4 mm 6 mps 722 mmHg 85%
    19:00 -2°C° 0.4 mm 6 mps 722 mmHg 85%
    20:00 -2°C° 0.4 mm 6 mps 721 mmHg 86%
    21:00 -2°C° 0.2 mm 6 mps 721 mmHg 85%
    22:00 -2°C° 0.2 mm 6 mps 721 mmHg 85%
    23:00 -2°C° 0.2 mm 6 mps 722 mmHg 85%

    Tomorrow, 18 January, Friday

    Time Temperature Precipitation Wind Pressure Humidity
    00:00 -2°C° 0.2 mm 6 mps 722 mmHg 85%
    01:00 -2°C° 0.2 mm 6 mps 723 mmHg 85%
    02:00 -2°C° 0.2 mm 6 mps 724 mmHg 84%
    03:00 -2°C° 0.5 mm 6 mps 724 mmHg 86%
    04:00 -1°C° 0.5 mm 5 mps 725 mmHg 87%
    05:00 -2°C° 0.5 mm 4 mps 725 mmHg 88%
    06:00 -2°C° 0.2 mm 4 mps 726 mmHg 89%
    07:00 -3°C° 0.2 mm 4 mps 726 mmHg 90%
    08:00 -4°C° 0.2 mm 3 mps 727 mmHg 90%
    09:00 -5°C° 0.1 mm 3 mps 728 mmHg 89%
    10:00 -5°C° 0.1 mm 3 mps 728 mmHg 88%
    11:00 -7°C° 0.1 mm 4 mps 729 mmHg 87%
    12:00 -6°C° 0 mm 3 mps 729 mmHg 87%
    13:00 -7°C° 0 mm 3 mps 730 mmHg 87%
    14:00 -6°C° 0 mm 2 mps 730 mmHg 88%
    15:00 -7°C° 0 mm 2 mps 730 mmHg 90%
    16:00 -7°C° 0 mm 1 mps 730 mmHg 92%
    17:00 -8°C° 0 mm 1 mps 730 mmHg 94%
    18:00 -8°C° 0.2 mm 1 mps 730 mmHg 94%
    19:00 -8°C° 0.2 mm 1 mps 730 mmHg 94%
    20:00 -8°C° 0.2 mm 1 mps 730 mmHg 94%
    21:00 -8°C° 0.2 mm 1 mps 730 mmHg 93%
    22:00 -9°C° 0.2 mm 2 mps 730 mmHg 92%
    23:00 -9°C° 0.2 mm 2 mps 731 mmHg 91%

    Day after tomorrow, 19 January, Saturday

    Time Temperature Precipitation Wind Pressure Humidity
    00:00 -9°C° 0 mm 2 mps 731 mmHg 91%
    01:00 -12°C° 0 mm 3 mps 732 mmHg 91%
    02:00 -12°C° 0 mm 3 mps 733 mmHg 91%
    03:00 -10°C° 0 mm 3 mps 733 mmHg 91%
    04:00 -10°C° 0 mm 3 mps 733 mmHg 90%
    05:00 -10°C° 0 mm 3 mps 734 mmHg 90%
    06:00 -10°C° 0 mm 3 mps 734 mmHg 90%
    07:00 -9°C° 0 mm 3 mps 735 mmHg 90%
    08:00 -9°C° 0 mm 3 mps 735 mmHg 90%
    09:00 -10°C° 0 mm 4 mps 735 mmHg 89%
    10:00 -9°C° 0 mm 4 mps 736 mmHg 88%
    11:00 -8°C° 0 mm 5 mps 736 mmHg 86%
    12:00 -8°C° 0 mm 5 mps 736 mmHg 86%
    13:00 -8°C° 0 mm 4 mps 736 mmHg 85%
    14:00 -7°C° 0 mm 4 mps 736 mmHg 85%
    15:00 -8°C° 0.1 mm 4 mps 736 mmHg 86%
    16:00 -8°C° 0.1 mm 4 mps 737 mmHg 87%
    17:00 -8°C° 0.1 mm 4 mps 737 mmHg 89%
    18:00 -9°C° 0 mm 4 mps 737 mmHg 89%
    19:00 -9°C° 0 mm 4 mps 737 mmHg 88%
    20:00 -9°C° 0 mm 4 mps 737 mmHg 88%
    21:00 -9°C° 0 mm 4 mps 738 mmHg 89%
    22:00 -9°C° 0 mm 4 mps 738 mmHg 89%
    23:00 -9°C° 0 mm 4 mps 738 mmHg 90%

    20 January, Sunday

    Time Temperature Precipitation Wind Pressure Humidity
    00:00 -9°C° 0 mm 4 mps 738 mmHg 90%
    01:00 -9°C° 0 mm 4 mps 739 mmHg 90%
    02:00 -9°C° 0 mm 4 mps 739 mmHg 90%
    03:00 -9°C° 0 mm 4 mps 739 mmHg 90%
    04:00 -10°C° 0 mm 4 mps 739 mmHg 91%
    05:00 -10°C° 0 mm 4 mps 738 mmHg 92%
    06:00 -10°C° 0 mm 4 mps 738 mmHg 91%
    07:00 -10°C° 0 mm 4 mps 738 mmHg 91%
    08:00 -10°C° 0 mm 4 mps 738 mmHg 91%
    09:00 -10°C° 0.1 mm 4 mps 738 mmHg 90%
    10:00 -11°C° 0.1 mm 5 mps 738 mmHg 89%
    11:00 -10°C° 0.1 mm 5 mps 737 mmHg 89%
    12:00 -8°C° 0.1 mm 5 mps 737 mmHg 88%
    13:00 -7°C° 0.1 mm 5 mps 737 mmHg 87%
    14:00 -7°C° 0.1 mm 5 mps 736 mmHg 87%
    15:00 -7°C° 0.3 mm 4 mps 736 mmHg 87%
    16:00 -7°C° 0.3 mm 4 mps 736 mmHg 88%
    17:00 -6°C° 0.3 mm 3 mps 736 mmHg 89%
    18:00 -7°C° 0 mm 3 mps 736 mmHg 91%
    19:00 -7°C° 0 mm 2 mps 737 mmHg 92%
    20:00 -8°C° 0 mm 2 mps 737 mmHg 94%
    21:00 -8°C° 0 mm 2 mps 737 mmHg 94%
    22:00 -9°C° 0 mm 2 mps 737 mmHg 94%
    23:00 -9°C° 0 mm 2 mps 737 mmHg 95%

    21 January, Monday

    Time Temperature Precipitation Wind Pressure Humidity
    00:00 -9°C° 0 mm 2 mps 737 mmHg 94%
    01:00 -9°C° 0 mm 2 mps 737 mmHg 94%
    02:00 -9°C° 0 mm 2 mps 737 mmHg 94%
    03:00 -10°C° 0 mm 2 mps 737 mmHg 93%
    04:00 -10°C° 0 mm 2 mps 737 mmHg 93%
    05:00 -12°C° 0 mm 2 mps 737 mmHg 93%
    06:00 -12°C° 0 mm 2 mps 738 mmHg 93%
    07:00 -13°C° 0 mm 2 mps 738 mmHg 93%
    08:00 -14°C° 0 mm 2 mps 738 mmHg 94%
    09:00 -15°C° 0 mm 3 mps 738 mmHg 92%
    10:00 -15°C° 0 mm 3 mps 739 mmHg 91%
    11:00 -14°C° 0 mm 3 mps 739 mmHg 89%
    12:00 -14°C° 0 mm 3 mps 739 mmHg 89%
    13:00 -14°C° 0 mm 3 mps 739 mmHg 89%
    14:00 -13°C° 0 mm 3 mps 739 mmHg 89%
    15:00 -14°C° 0 mm 3 mps 739 mmHg 90%
    16:00 -14°C° 0 mm 3 mps 739 mmHg 91%
    17:00 -13°C° 0 mm 2 mps 739 mmHg 93%
    18:00 -13°C° 0 mm 2 mps 739 mmHg 93%
    19:00 -13°C° 0 mm 2 mps 739 mmHg 93%
    20:00 -14°C° 0 mm 3 mps 739 mmHg 93%
    21:00 -14°C° 0 mm 3 mps 739 mmHg 93%
    22:00 -14°C° 0 mm 3 mps 739 mmHg 93%
    23:00 -14°C° 0 mm 3 mps 739 mmHg 93%

    22 January, Tuesday

    Time Temperature Precipitation Wind Pressure Humidity
    00:00 -14°C° 0 mm 3 mps 739 mmHg 93%
    01:00 -14°C° 0 mm 3 mps 739 mmHg 92%
    02:00 -14°C° 0 mm 3 mps 739 mmHg 92%
    03:00 -14°C° 0 mm 3 mps 739 mmHg 92%
    04:00 -14°C° 0 mm 3 mps 739 mmHg 92%
    05:00 -14°C° 0 mm 3 mps 739 mmHg 93%
    06:00 -14°C° 0 mm 3 mps 739 mmHg 93%
    07:00 -14°C° 0 mm 2 mps 739 mmHg 94%
    08:00 -14°C° 0 mm 2 mps 739 mmHg 95%
    09:00 -14°C° 0 mm 3 mps 740 mmHg 94%
    10:00 -13°C° 0 mm 3 mps 740 mmHg 92%
    11:00 -12°C° 0 mm 3 mps 740 mmHg 91%
    12:00 -12°C° 0 mm 3 mps 740 mmHg 89%
    13:00 -10°C° 0 mm 3 mps 740 mmHg 88%
    14:00 -9°C° 0 mm 3 mps 740 mmHg 87%
    15:00 -10°C° 0.1 mm 3 mps 740 mmHg 88%
    16:00 -10°C° 0.1 mm 3 mps 741 mmHg 90%
    17:00 -10°C° 0.1 mm 3 mps 741 mmHg 91%
    18:00 -12°C° 0.1 mm 3 mps 741 mmHg 91%
    19:00 -12°C° 0.1 mm 3 mps 741 mmHg 92%
    20:00 -13°C° 0.1 mm 3 mps 742 mmHg 92%
    21:00 -13°C° 0 mm 2 mps 742 mmHg 93%
    22:00 -14°C° 0 mm 2 mps 742 mmHg 93%
    23:00 -15°C° 0 mm 2 mps 743 mmHg 94%
    Show more